Home > Weather > Hilo > Past weeks

Flag for USA Past Weather in Hilo, Hawaii, USA — Yesterday and Last 2 Weeks

Now
76 °F

Passing clouds.


Feels Like: 76 °F
Forecast: 74 / 86 °F
Wind: 3 mph from Southwest

Location: Hilo International Airport

Current Time: Aug 24, 2016 at 11:59:05 PM

Latest Report: Aug 24, 2016 at 10:53 PM


Visibility: 10 mi

Pressure: 30.08 "Hg

Humidity: 88%

Dew Point: 72 °F

Location of HiloLocation

Past Weather in Hilo — Graph

°F

Hilo Temperature Yesterday

Maximum temperature yesterday: 79 °F (at 11:12 AM)
Minimum temperature yesterday: 73 °F (at 12:53 AM)
Average temperature yesterday: 75 °F

High & Low Weather Summary for the Past Weeks

 TemperatureHumidityPressure
High86 °F (Aug 10, 11:53 AM)100% (Aug 13, 4:12 AM)30.09 "Hg (Aug 13, 4:12 AM)
Low68 °F (Aug 21, 5:53 AM)54% (Aug 21, 7:53 AM)29.88 "Hg (Aug 22, 3:56 PM)
Average76 °F86%29.97 "Hg
* Reported Aug 9 10:03 PM — Aug 24 9:53 PM, Hilo, Weather by CustomWeather, © 2016

Note: Actual official high and low records may vary slightly from our data, if they occured in-between our weather recording intervals... More about our weather records

Advertising

Hilo Weather History for the Previous 24 Hours

Scroll right to see more
 ConditionsComfort  
Time TempWeatherWind HumidityBarometerVisibility
9:53 PM
Wed, Aug 24
76 °FOvercast.6 mph85%30.08 "Hg10 mi
8:53 PM76 °FOvercast.5 mph88%30.07 "Hg10 mi
8:23 PM75 °FMostly cloudy.6 mph89%30.06 "Hg10 mi
7:53 PM78 °FOvercast.No wind79%30.05 "Hg10 mi
7:44 PM79 °FMostly cloudy.3 mph79%30.05 "Hg10 mi
7:18 PM79 °FPartly cloudy.No wind79%30.04 "Hg10 mi
6:53 PM78 °FMostly cloudy.No wind82%30.03 "Hg10 mi
6:06 PM79 °FOvercast.5 mph79%30.02 "Hg10 mi
5:53 PM79 °FMostly cloudy.6 mph74%30.01 "Hg10 mi
5:39 PM79 °FMostly cloudy.7 mph74%30.01 "Hg10 mi
4:53 PM81 °FOvercast.7 mph72%30.00 "Hg10 mi
3:53 PM82 °FPartly sunny.7 mph70%30.00 "Hg10 mi
2:53 PM82 °FPartly sunny.9 mph70%30.00 "Hg10 mi
1:53 PM82 °FMostly cloudy.12 mph70%30.00 "Hg10 mi
12:53 PM82 °FPartly sunny.7 mph70%30.01 "Hg10 mi
11:53 AM83 °FOvercast.8 mph72%30.01 "Hg10 mi
10:53 AM81 °FPartly sunny.8 mph74%30.02 "Hg10 mi
10:00 AM79 °FOvercast.3 mph84%30.03 "Hg10 mi
9:39 AM79 °FLight rain. Overcast.3 mph84%30.03 "Hg9 mi
9:14 AM77 °FLight rain. Mostly cloudy.5 mph89%30.03 "Hg10 mi
8:53 AM77 °FLight rain. Fog.5 mph94%30.03 "Hg5 mi
7:53 AM76 °FMostly cloudy.6 mph91%30.02 "Hg10 mi
7:00 AM73 °FMore clouds than sun.6 mph94%30.02 "Hg10 mi
6:53 AM74 °FMostly cloudy.6 mph94%30.01 "Hg9 mi
6:00 AM73 °FMostly cloudy.6 mph94%30.00 "Hg10 mi
4:53 AM73 °FLight rain. Fog.6 mph97%29.98 "Hg5 mi
3:53 AM73 °FRain. Fog.3 mph97%29.96 "Hg2 mi
2:53 AM74 °FHeavy rain. Fog.3 mph97%29.95 "Hg1 mi
2:35 AM73 °FHeavy rain. Fog.6 mph100%29.96 "Hg1 mi
2:07 AM73 °FRain. Fog.5 mph100%29.95 "Hg2 mi
1:53 AM74 °FHeavy rain. Fog.6 mph97%29.95 "Hg1 mi
1:30 AM73 °FHeavy rain. Fog.6 mph100%29.96 "Hg1 mi
1:21 AM75 °FRain. Fog.3 mph94%29.96 "Hg2 mi
12:53 AM75 °FLight rain. Mostly cloudy.3 mph96%29.96 "Hg7 mi
12:28 AM75 °FPassing clouds.6 mph94%29.97 "Hg8 mi
11:53 PM
Tue, Aug 23
75 °FLight rain. Fog.5 mph96%29.97 "Hg5 mi
11:09 PM75 °FMostly cloudy.5 mph94%29.99 "Hg9 mi
Weather by CustomWeather, © 2016

See weather overviewHow to use our weather pages